sat.trackr.live / text

‹ back to catalog

STARLINK-3210

NORAD 49755 · 2021-115AH

PAYLOAD ACTIVE UNKNOWN

§ Identity

Operator
Country
US
Launch date
2021-12-02
Launch site
AFETR
Launch vehicle
Mass (kg)
RCS (m²)

Purposes: comms

External: N2YO · Heavens-Above · Gunter

§ Orbital elements

Epoch: 2026-09-19T22:29:29.970816Z

Period
93.85 min
Inclination
53.1604°
Eccentricity
0.0001432
Mean motion
15.34387287 rev/d
Perigee alt
461.8 km
Apogee alt
463.7 km
Semi-major
6,840.9 km
B*
2.9067e-5
RAAN
344.4350°
Arg perigee
74.9726°
Mean anomaly
285.1435°
Rev number
26,503

§ Raw data

STARLINK-32101 49755U 21115AH  26262.93715244  .00000605  00000+0  29067-4 0  99912 49755  53.1604 344.4350 0001432  74.9726 285.1435 15.34387287265031

JSON: /api/v1/satellites/49755 · /tle

For live sub-satellite position, see the globe view (requires WebGL).

§ Visibility from observer

Set your observer location to see the next 7 days of passes ≥ 10°. The values pass through the URL so the page stays shareable.

No JS? Fill the form by hand. The geolocation button needs JavaScript.